| time (UTC) | temp F | wind direction | speed MPH | gust MPH | rain 1hr in | rain 24hr in | rain mn in | humidity % | barometer mb |
| 20260831022204 | 83 | 358 | 9.0 | 17.0 | 0.00 | 0.00 | 0.00 | 26 | 1013.3 |
| 20260831020704 | 84 | 358 | 10.0 | 17.0 | 0.00 | 0.00 | 0.00 | 27 | 1013.1 |
| 20260831020204 | 84 | 358 | 10.0 | 16.0 | 0.00 | 0.00 | 0.00 | 26 | 1013.1 |
| 20260831015204 | 85 | 358 | 11.0 | 18.0 | 0.00 | 0.00 | 0.00 | 25 | 1013.1 |
| 20260831014704 | 85 | 313 | 12.0 | 21.0 | 0.00 | 0.00 | 0.00 | 25 | 1013.0 |
| 20260831013704 | 86 | 315 | 13.0 | 21.0 | 0.00 | 0.00 | 0.00 | 25 | 1013.1 |
| 20260831013204 | 86 | 321 | 12.0 | 21.0 | 0.00 | 0.00 | 0.00 | 25 | 1013.0 |
| 20260831012704 | 86 | 338 | 13.0 | 21.0 | 0.00 | 0.00 | 0.00 | 25 | 1013.0 |
| 20260831012205 | 87 | 316 | 13.0 | 19.0 | 0.00 | 0.00 | 0.00 | 25 | 1013.0 |
| 20260831011204 | 87 | 311 | 13.0 | 19.0 | 0.00 | 0.00 | 0.00 | 25 | 1013.0 |
| 20260831010705 | 87 | 302 | 12.0 | 21.0 | 0.00 | 0.00 | 0.00 | 25 | 1013.1 |
| 20260831010205 | 88 | 261 | 12.0 | 21.0 | 0.00 | 0.00 | 0.00 | 24 | 1013.0 |
| 20260831005704 | 88 | 277 | 13.0 | 21.0 | 0.00 | 0.00 | 0.00 | 25 | 1013.0 |
| 20260831005205 | 88 | 298 | 14.0 | 20.0 | 0.00 | 0.00 | 0.00 | 25 | 1013.1 |
| 20260831004704 | 88 | 294 | 13.0 | 19.0 | 0.00 | 0.00 | 0.00 | 25 | 1013.0 |
| 20260831004205 | 89 | 306 | 13.0 | 19.0 | 0.00 | 0.00 | 0.00 | 25 | 1013.0 |
| 20260831003704 | 89 | 277 | 13.0 | 24.0 | 0.00 | 0.00 | 0.00 | 25 | 1013.0 |
| 20260831003204 | 89 | 311 | 14.0 | 24.0 | 0.00 | 0.00 | 0.00 | 25 | 1012.9 |
| 20260831002704 | 89 | 263 | 14.0 | 24.0 | 0.00 | 0.00 | 0.00 | 25 | 1012.9 |
| 20260831002206 | 90 | 300 | 12.0 | 18.0 | 0.00 | 0.00 | 0.00 | 24 | 1012.9 |
| 20260831001704 | 90 | 300 | 10.0 | 18.0 | 0.00 | 0.00 | 0.00 | 23 | 1012.9 |
| 20260831001204 | 90 | 296 | 10.0 | 20.0 | 0.00 | 0.00 | 0.00 | 23 | 1012.9 |
| 20260831000704 | 90 | 321 | 11.0 | 20.0 | 0.00 | 0.00 | 0.00 | 23 | 1012.9 |
| 20260831000206 | 90 | 3 | 12.0 | 18.0 | 0.00 | 0.00 | 0.00 | 22 | 1012.9 |
| 20260830235704 | 90 | 3 | 12.0 | 19.0 | 0.00 | 0.00 | 0.00 | 22 | 1012.9 |
| 20260830235204 | 90 | 21 | 13.0 | 19.0 | 0.00 | 0.00 | 0.00 | 22 | 1012.9 |
| 20260830234204 | 91 | 348 | 10.0 | 20.0 | 0.00 | 0.00 | 0.00 | 21 | 1012.9 |
| 20260830233704 | 91 | 345 | 11.0 | 20.0 | 0.00 | 0.00 | 0.00 | 21 | 1012.9 |
| 20260830233203 | 90 | 10 | 12.0 | 20.0 | 0.00 | 0.00 | 0.00 | 22 | 1012.9 |
| 20260830232704 | 91 | 55 | 10.0 | 18.0 | 0.00 | 0.00 | 0.00 | 21 | 1012.9 |
| 20260830232204 | 92 | 3 | 9.0 | 18.0 | 0.00 | 0.00 | 0.00 | 22 | 1013.0 |
| 20260830231704 | 91 | 315 | 10.0 | 18.0 | 0.00 | 0.00 | 0.00 | 23 | 1013.0 |
| 20260830231204 | 91 | 327 | 8.0 | 16.0 | 0.00 | 0.00 | 0.00 | 23 | 1013.0 |
| 20260830225704 | 91 | 309 | 10.0 | 23.0 | 0.00 | 0.00 | 0.00 | 24 | 1013.1 |
| 20260830225204 | 91 | 330 | 11.0 | 23.0 | 0.00 | 0.00 | 0.00 | 24 | 1013.2 |
| 20260830224704 | 91 | 291 | 12.0 | 23.0 | 0.00 | 0.00 | 0.00 | 24 | 1013.2 |
| 20260830224204 | 91 | 287 | 11.0 | 21.0 | 0.00 | 0.00 | 0.00 | 25 | 1013.3 |
| 20260830223704 | 92 | 304 | 11.0 | 18.0 | 0.00 | 0.00 | 0.00 | 25 | 1013.3 |
| 20260830222204 | 91 | 278 | 9.0 | 18.0 | 0.00 | 0.00 | 0.00 | 26 | 1013.5 |
| 20260830221205 | 91 | 262 | 7.0 | 18.0 | 0.00 | 0.00 | 0.00 | 25 | 1013.8 |
| 20260830220204 | 91 | 282 | 8.0 | 18.0 | 0.00 | 0.00 | 0.00 | 25 | 1013.9 |
| 20260830215704 | 91 | 317 | 7.0 | 13.0 | 0.00 | 0.00 | 0.00 | 25 | 1013.9 |
| 20260830214204 | 92 | 330 | 7.0 | 14.0 | 0.00 | 0.00 | 0.00 | 24 | 1014.1 |
| 20260830213704 | 92 | 309 | 8.0 | 17.0 | 0.00 | 0.00 | 0.00 | 25 | 1014.1 |
| 20260830213204 | 91 | 334 | 9.0 | 20.0 | 0.00 | 0.00 | 0.00 | 26 | 1014.2 |
| 20260830212705 | 91 | 265 | 11.0 | 20.0 | 0.00 | 0.00 | 0.00 | 26 | 1014.2 |
| 20260830212206 | 90 | 304 | 11.0 | 20.0 | 0.00 | 0.00 | 0.00 | 26 | 1014.3 |
| 20260830210705 | 91 | 277 | 6.0 | 14.0 | 0.00 | 0.00 | 0.00 | 25 | 1014.5 |
| 20260830210204 | 91 | 259 | 4.0 | 7.0 | 0.00 | 0.00 | 0.00 | 25 | 1014.6 |
| 20260830205204 | 92 | 217 | 3.0 | 5.0 | 0.00 | 0.00 | 0.00 | 23 | 1014.7 |
| 20260830203704 | 89 | 57 | 4.0 | 12.0 | 0.00 | 0.00 | 0.00 | 23 | 1015.0 |
| 20260830203204 | 89 | 22 | 4.0 | 10.0 | 0.00 | 0.00 | 0.00 | 23 | 1015.0 |
| 20260830202705 | 89 | 319 | 5.0 | 10.0 | 0.00 | 0.00 | 0.00 | 25 | 1015.0 |
| 20260830201704 | 90 | 22 | 4.0 | 11.0 | 0.00 | 0.00 | 0.00 | 24 | 1015.1 |
| 20260830200704 | 89 | 36 | 6.0 | 13.0 | 0.00 | 0.00 | 0.00 | 25 | 1015.2 |
| 20260830195705 | 90 | 20 | 6.0 | 13.0 | 0.00 | 0.00 | 0.00 | 26 | 1015.1 |
| 20260830195204 | 91 | 338 | 5.0 | 10.0 | 0.00 | 0.00 | 0.00 | 25 | 1015.2 |
| 20260830194704 | 91 | 342 | 4.0 | 10.0 | 0.00 | 0.00 | 0.00 | 24 | 1015.2 |
| 20260830193704 | 92 | 37 | 4.0 | 8.0 | 0.00 | 0.00 | 0.00 | 22 | 1015.2 |
| 20260830193205 | 93 | 32 | 3.0 | 7.0 | 0.00 | 0.00 | 0.00 | 21 | 1015.2 |
| 20260830192704 | 93 | 82 | 2.0 | 7.0 | 0.00 | 0.00 | 0.00 | 21 | 1015.3 |
| 20260830192204 | 92 | 29 | 2.0 | 8.0 | 0.00 | 0.00 | 0.00 | 22 | 1015.4 |
| 20260830191205 | 90 | 71 | 3.0 | 10.0 | 0.00 | 0.00 | 0.00 | 23 | 1015.4 |
| 20260830190704 | 89 | 254 | 4.0 | 10.0 | 0.00 | 0.00 | 0.00 | 25 | 1015.4 |
| 20260830190204 | 89 | 252 | 4.0 | 8.0 | 0.00 | 0.00 | 0.00 | 23 | 1015.5 |
| 20260830185204 | 90 | 145 | 2.0 | 10.0 | 0.00 | 0.00 | 0.00 | 23 | 1015.5 |
| 20260830184204 | 89 | 126 | 4.0 | 9.0 | 0.00 | 0.00 | 0.00 | 23 | 1015.7 |
| 20260830183704 | 89 | 84 | 4.0 | 9.0 | 0.00 | 0.00 | 0.00 | 23 | 1015.7 |
| 20260830183204 | 89 | 58 | 4.0 | 10.0 | 0.00 | 0.00 | 0.00 | 23 | 1015.7 |
| 20260830182704 | 89 | 65 | 4.0 | 10.0 | 0.00 | 0.00 | 0.00 | 23 | 1015.7 |
| 20260830182205 | 88 | 26 | 5.0 | 10.0 | 0.00 | 0.00 | 0.00 | 24 | 1015.9 |
| 20260830180704 | 88 | 94 | 4.0 | 11.0 | 0.00 | 0.00 | 0.00 | 23 | 1015.9 |
| 20260830180204 | 89 | 50 | 5.0 | 9.0 | 0.00 | 0.00 | 0.00 | 24 | 1015.9 |
| 20260830175705 | 88 | 80 | 4.0 | 9.0 | 0.00 | 0.00 | 0.00 | 23 | 1015.9 |
| 20260830175204 | 88 | 110 | 3.0 | 9.0 | 0.00 | 0.00 | 0.00 | 23 | 1015.9 |
| 20260830174204 | 88 | 9 | 4.0 | 9.0 | 0.00 | 0.00 | 0.00 | 23 | 1015.9 |
| 20260830173704 | 88 | 83 | 3.0 | 8.0 | 0.00 | 0.00 | 0.00 | 24 | 1016.0 |
| 20260830172704 | 88 | 72 | 4.0 | 9.0 | 0.00 | 0.00 | 0.00 | 23 | 1016.1 |
| 20260830172204 | 88 | 105 | 5.0 | 9.0 | 0.00 | 0.00 | 0.00 | 23 | 1016.0 |
| 20260830171704 | 88 | 99 | 3.0 | 9.0 | 0.00 | 0.00 | 0.00 | 23 | 1016.0 |
| 20260830170704 | 87 | 162 | 3.0 | 8.0 | 0.00 | 0.00 | 0.00 | 25 | 1016.0 |
| 20260830170205 | 86 | 130 | 3.0 | 8.0 | 0.00 | 0.00 | 0.00 | 27 | 1015.9 |
| 20260830165705 | 86 | 130 | 3.0 | 12.0 | 0.00 | 0.00 | 0.00 | 27 | 1016.0 |
| 20260830165204 | 86 | 122 | 3.0 | 12.0 | 0.00 | 0.00 | 0.00 | 29 | 1015.9 |
| 20260830164704 | 85 | 124 | 4.0 | 12.0 | 0.00 | 0.00 | 0.00 | 29 | 1015.9 |
| 20260830163704 | 85 | 333 | 2.0 | 4.0 | 0.00 | 0.00 | 0.00 | 29 | 1015.7 |
| 20260830163204 | 85 | 330 | 2.0 | 5.0 | 0.00 | 0.00 | 0.00 | 30 | 1015.7 |
| 20260830162704 | 84 | 329 | 2.0 | 5.0 | 0.00 | 0.00 | 0.00 | 32 | 1015.7 |
| 20260830161204 | 82 | 331 | 2.0 | 4.0 | 0.00 | 0.00 | 0.00 | 34 | 1015.9 |
| 20260830160704 | 82 | 331 | 2.0 | 4.0 | 0.00 | 0.00 | 0.00 | 34 | 1015.9 |
| 20260830160204 | 82 | 331 | 2.0 | 4.0 | 0.00 | 0.00 | 0.00 | 35 | 1015.9 |
| 20260830155705 | 81 | 329 | 1.0 | 3.0 | 0.00 | 0.00 | 0.00 | 35 | 1015.9 |
| 20260830155204 | 81 | 329 | 2.0 | 3.0 | 0.00 | 0.00 | 0.00 | 35 | 1015.9 |
| 20260830154704 | 81 | 329 | 1.0 | 3.0 | 0.00 | 0.00 | 0.00 | 35 | 1015.9 |
| 20260830154204 | 80 | 329 | 1.0 | 3.0 | 0.00 | 0.00 | 0.00 | 38 | 1016.0 |
| 20260830153704 | 79 | 329 | 1.0 | 4.0 | 0.00 | 0.00 | 0.00 | 38 | 1016.0 |
| 20260830153204 | 78 | 329 | 1.0 | 4.0 | 0.00 | 0.00 | 0.00 | 41 | 1016.0 |
| 20260830152704 | 78 | 358 | 1.0 | 4.0 | 0.00 | 0.00 | 0.00 | 43 | 1016.0 |
| 20260830152204 | 77 | 329 | 2.0 | 4.0 | 0.00 | 0.00 | 0.00 | 44 | 1016.1 |
| 20260830151704 | 76 | 329 | 2.0 | 4.0 | 0.00 | 0.00 | 0.00 | 45 | 1016.1 |
| 20260830151204 | 76 | 329 | 2.0 | 4.0 | 0.00 | 0.00 | 0.00 | 47 | 1016.1 |
| 20260830150704 | 75 | 329 | 3.0 | 4.0 | 0.00 | 0.00 | 0.00 | 49 | 1016.1 |
| 20260830150204 | 74 | 329 | 3.0 | 4.0 | 0.00 | 0.00 | 0.00 | 51 | 1016.2 |
| 20260830145705 | 73 | 329 | 3.0 | 4.0 | 0.00 | 0.00 | 0.00 | 52 | 1016.2 |
| 20260830145204 | 73 | 329 | 3.0 | 4.0 | 0.00 | 0.00 | 0.00 | 52 | 1016.1 |
| 20260830144704 | 73 | 329 | 3.0 | 4.0 | 0.00 | 0.00 | 0.00 | 53 | 1016.2 |
| 20260830144204 | 72 | 329 | 3.0 | 4.0 | 0.00 | 0.00 | 0.00 | 54 | 1016.1 |
| 20260830143704 | 72 | 329 | 3.0 | 4.0 | 0.00 | 0.00 | 0.00 | 54 | 1016.1 |
| 20260830143204 | 72 | 329 | 3.0 | 6.0 | 0.00 | 0.00 | 0.00 | 55 | 1016.1 |
| 20260830142704 | 71 | 329 | 3.0 | 6.0 | 0.00 | 0.00 | 0.00 | 55 | 1016.1 |
| 20260830142204 | 71 | 329 | 4.0 | 6.0 | 0.00 | 0.00 | 0.00 | 56 | 1016.0 |
| 20260830141704 | 71 | 329 | 4.0 | 6.0 | 0.00 | 0.00 | 0.00 | 56 | 1016.1 |
| 20260830141204 | 70 | 328 | 3.0 | 8.0 | 0.00 | 0.00 | 0.00 | 57 | 1016.0 |
| 20260830140704 | 70 | 328 | 4.0 | 8.0 | 0.00 | 0.00 | 0.00 | 57 | 1016.0 |
| 20260830135704 | 69 | 327 | 5.0 | 8.0 | 0.00 | 0.00 | 0.00 | 58 | 1016.0 |
| 20260830134704 | 69 | 331 | 4.0 | 5.0 | 0.00 | 0.00 | 0.00 | 60 | 1015.9 |
| 20260830134204 | 68 | 332 | 3.0 | 5.0 | 0.00 | 0.00 | 0.00 | 60 | 1015.9 |
| 20260830133704 | 68 | 332 | 3.0 | 5.0 | 0.00 | 0.00 | 0.00 | 59 | 1015.9 |
| 20260830133204 | 68 | 332 | 3.0 | 5.0 | 0.00 | 0.00 | 0.00 | 58 | 1015.7 |
| 20260830132704 | 68 | 332 | 3.0 | 4.0 | 0.00 | 0.00 | 0.00 | 57 | 1015.7 |
| 20260830132204 | 68 | 332 | 3.0 | 4.0 | 0.00 | 0.00 | 0.00 | 56 | 1015.6 |
| 20260830131704 | 68 | 332 | 3.0 | 4.0 | 0.00 | 0.00 | 0.00 | 55 | 1015.6 |
| 20260830131205 | 69 | 332 | 2.0 | 6.0 | 0.00 | 0.00 | 0.00 | 53 | 1015.6 |
| 20260830130705 | 69 | 332 | 3.0 | 6.0 | 0.00 | 0.00 | 0.00 | 53 | 1015.6 |
| 20260830130204 | 69 | 332 | 4.0 | 6.0 | 0.00 | 0.00 | 0.00 | 53 | 1015.6 |
| 20260830125204 | 69 | 332 | 4.0 | 6.0 | 0.00 | 0.00 | 0.00 | 53 | 1015.5 |
| 20260830124704 | 69 | 332 | 4.0 | 8.0 | 0.00 | 0.00 | 0.00 | 53 | 1015.5 |
| 20260830124204 | 69 | 332 | 5.0 | 8.0 | 0.00 | 0.00 | 0.00 | 52 | 1015.4 |
| 20260830123204 | 69 | 333 | 5.0 | 8.0 | 0.00 | 0.00 | 0.00 | 51 | 1015.3 |
| 20260830122704 | 70 | 333 | 5.0 | 8.0 | 0.00 | 0.00 | 0.00 | 50 | 1015.3 |
| 20260830122205 | 70 | 332 | 5.0 | 8.0 | 0.00 | 0.00 | 0.00 | 48 | 1015.3 |
| 20260830121204 | 71 | 336 | 4.0 | 6.0 | 0.00 | 0.00 | 0.00 | 46 | 1015.3 |
| 20260830120705 | 71 | 336 | 4.0 | 6.0 | 0.00 | 0.00 | 0.00 | 46 | 1015.3 |
| 20260830120205 | 71 | 336 | 5.0 | 6.0 | 0.00 | 0.00 | 0.00 | 46 | 1015.3 |
| 20260830115704 | 71 | 335 | 4.0 | 6.0 | 0.00 | 0.00 | 0.00 | 46 | 1015.3 |
| 20260830115204 | 71 | 334 | 4.0 | 6.0 | 0.00 | 0.00 | 0.00 | 46 | 1015.3 |
| 20260830114704 | 71 | 334 | 4.0 | 6.0 | 0.00 | 0.00 | 0.00 | 46 | 1015.3 |
| 20260830114204 | 71 | 334 | 4.0 | 6.0 | 0.00 | 0.00 | 0.00 | 46 | 1015.3 |
| 20260830113704 | 72 | 334 | 4.0 | 6.0 | 0.00 | 0.00 | 0.00 | 45 | 1015.3 |
| 20260830113204 | 72 | 334 | 4.0 | 5.0 | 0.00 | 0.00 | 0.00 | 45 | 1015.3 |
| 20260830112704 | 72 | 334 | 3.0 | 6.0 | 0.00 | 0.00 | 0.00 | 45 | 1015.3 |
| 20260830112204 | 72 | 334 | 4.0 | 6.0 | 0.00 | 0.00 | 0.00 | 45 | 1015.3 |
| 20260830111704 | 72 | 334 | 4.0 | 6.0 | 0.00 | 0.00 | 0.00 | 45 | 1015.3 |
| 20260830105704 | 71 | 331 | 4.0 | 6.0 | 0.00 | 0.00 | 0.00 | 48 | 1015.3 |
| 20260830105204 | 70 | 331 | 4.0 | 5.0 | 0.00 | 0.00 | 0.00 | 51 | 1015.3 |
| 20260830104706 | 70 | 331 | 3.0 | 5.0 | 0.00 | 0.00 | 0.00 | 52 | 1015.3 |
| 20260830104204 | 70 | 331 | 3.0 | 5.0 | 0.00 | 0.00 | 0.00 | 52 | 1015.2 |
| 20260830103704 | 70 | 331 | 3.0 | 5.0 | 0.00 | 0.00 | 0.00 | 53 | 1015.2 |
| 20260830103204 | 69 | 331 | 3.0 | 5.0 | 0.00 | 0.00 | 0.00 | 54 | 1015.2 |
| 20260830102205 | 69 | 331 | 3.0 | 4.0 | 0.00 | 0.00 | 0.00 | 54 | 1015.2 |
| 20260830101704 | 69 | 331 | 2.0 | 3.0 | 0.00 | 0.00 | 0.00 | 55 | 1015.2 |
| 20260830101204 | 70 | 331 | 2.0 | 3.0 | 0.00 | 0.00 | 0.00 | 54 | 1015.2 |
| 20260830100705 | 70 | 331 | 2.0 | 4.0 | 0.00 | 0.00 | 0.00 | 54 | 1015.2 |
| 20260830100204 | 70 | 331 | 2.0 | 4.0 | 0.00 | 0.00 | 0.00 | 55 | 1015.1 |
| 20260830095204 | 69 | 331 | 2.0 | 3.0 | 0.00 | 0.00 | 0.00 | 57 | 1015.1 |
| 20260830094706 | 69 | 331 | 2.0 | 3.0 | 0.00 | 0.00 | 0.00 | 57 | 1015.0 |
| 20260830094205 | 70 | 331 | 2.0 | 3.0 | 0.00 | 0.00 | 0.00 | 57 | 1015.0 |
| 20260830093704 | 70 | 331 | 2.0 | 3.0 | 0.00 | 0.00 | 0.00 | 57 | 1015.0 |
| 20260830092706 | 71 | 331 | 1.0 | 3.0 | 0.00 | 0.00 | 0.00 | 57 | 1015.1 |
| 20260830092204 | 71 | 331 | 1.0 | 3.0 | 0.00 | 0.00 | 0.00 | 56 | 1015.1 |
| 20260830091704 | 71 | 331 | 1.0 | 2.0 | 0.00 | 0.00 | 0.00 | 56 | 1015.2 |
| 20260830090704 | 72 | 331 | 2.0 | 4.0 | 0.00 | 0.00 | 0.00 | 56 | 1015.1 |
| 20260830090204 | 72 | 331 | 2.0 | 4.0 | 0.00 | 0.00 | 0.00 | 55 | 1015.1 |
| 20260830085704 | 73 | 331 | 2.0 | 4.0 | 0.00 | 0.00 | 0.00 | 55 | 1015.1 |
| 20260830085205 | 73 | 331 | 1.0 | 5.0 | 0.00 | 0.00 | 0.00 | 54 | 1015.1 |
| 20260830084704 | 73 | 331 | 2.0 | 5.0 | 0.00 | 0.00 | 0.00 | 54 | 1015.1 |
| 20260830084204 | 73 | 331 | 4.0 | 5.0 | 0.00 | 0.00 | 0.00 | 54 | 1015.1 |
| 20260830083704 | 73 | 331 | 4.0 | 5.0 | 0.00 | 0.00 | 0.00 | 55 | 1015.2 |
| 20260830083204 | 73 | 331 | 4.0 | 5.0 | 0.00 | 0.00 | 0.00 | 54 | 1015.2 |
| 20260830082704 | 73 | 331 | 3.0 | 5.0 | 0.00 | 0.00 | 0.00 | 54 | 1015.2 |
| 20260830082204 | 74 | 331 | 4.0 | 5.0 | 0.00 | 0.00 | 0.00 | 54 | 1015.3 |
| 20260830081706 | 74 | 331 | 4.0 | 8.0 | 0.00 | 0.00 | 0.00 | 54 | 1015.2 |
| 20260830081204 | 74 | 331 | 4.0 | 8.0 | 0.00 | 0.00 | 0.00 | 53 | 1015.3 |
| 20260830075704 | 74 | 330 | 5.0 | 10.0 | 0.00 | 0.00 | 0.00 | 54 | 1015.4 |
| 20260830075204 | 74 | 330 | 5.0 | 10.0 | 0.00 | 0.00 | 0.00 | 54 | 1015.3 |
| 20260830074705 | 73 | 331 | 4.0 | 8.0 | 0.00 | 0.00 | 0.00 | 54 | 1015.3 |
| 20260830074204 | 73 | 329 | 4.0 | 8.0 | 0.00 | 0.00 | 0.00 | 55 | 1015.4 |
| 20260830073704 | 73 | 329 | 4.0 | 6.0 | 0.00 | 0.00 | 0.00 | 55 | 1015.4 |
| 20260830072704 | 74 | 329 | 4.0 | 8.0 | 0.00 | 0.00 | 0.00 | 54 | 1015.5 |
| 20260830072204 | 74 | 331 | 4.0 | 8.0 | 0.00 | 0.00 | 0.00 | 54 | 1015.5 |
| 20260830071704 | 74 | 332 | 4.0 | 8.0 | 0.00 | 0.00 | 0.00 | 54 | 1015.5 |
| 20260830071204 | 74 | 332 | 4.0 | 5.0 | 0.00 | 0.00 | 0.00 | 54 | 1015.5 |
| 20260830070204 | 74 | 329 | 3.0 | 5.0 | 0.00 | 0.00 | 0.00 | 54 | 1015.5 |
| 20260830065704 | 73 | 329 | 3.0 | 5.0 | 0.00 | 0.00 | 0.00 | 54 | 1015.5 |
| 20260830065205 | 73 | 329 | 3.0 | 6.0 | 0.00 | 0.00 | 0.00 | 55 | 1015.5 |
| 20260830064705 | 73 | 328 | 4.0 | 6.0 | 0.00 | 0.00 | 0.00 | 54 | 1015.5 |
| 20260830064204 | 73 | 329 | 4.0 | 8.0 | 0.00 | 0.00 | 0.00 | 55 | 1015.5 |
| 20260830063704 | 73 | 327 | 4.0 | 8.0 | 0.00 | 0.00 | 0.00 | 55 | 1015.5 |
| 20260830062704 | 74 | 328 | 4.0 | 6.0 | 0.00 | 0.00 | 0.00 | 55 | 1015.5 |
| 20260830062204 | 75 | 330 | 3.0 | 5.0 | 0.00 | 0.00 | 0.00 | 54 | 1015.4 |
| 20260830061204 | 76 | 336 | 3.0 | 6.0 | 0.00 | 0.00 | 0.00 | 50 | 1015.5 |
| 20260830060204 | 76 | 341 | 4.0 | 8.0 | 0.00 | 0.00 | 0.00 | 47 | 1015.6 |
| 20260830055704 | 76 | 341 | 4.0 | 8.0 | 0.00 | 0.00 | 0.00 | 47 | 1015.6 |
| 20260830055204 | 77 | 342 | 4.0 | 8.0 | 0.00 | 0.00 | 0.00 | 46 | 1015.6 |
| 20260830054204 | 77 | 27 | 3.0 | 9.0 | 0.00 | 0.00 | 0.00 | 46 | 1015.7 |
| 20260830053704 | 77 | 28 | 4.0 | 9.0 | 0.00 | 0.00 | 0.00 | 46 | 1015.7 |
| 20260830053204 | 77 | 30 | 3.0 | 5.0 | 0.00 | 0.00 | 0.00 | 46 | 1015.6 |
| 20260830052704 | 77 | 16 | 3.0 | 8.0 | 0.00 | 0.00 | 0.00 | 46 | 1015.6 |
| 20260830052204 | 78 | 16 | 4.0 | 9.0 | 0.00 | 0.00 | 0.00 | 45 | 1015.6 |
| 20260830051704 | 78 | 15 | 5.0 | 9.0 | 0.00 | 0.00 | 0.00 | 45 | 1015.6 |
| 20260830051205 | 78 | 342 | 5.0 | 10.0 | 0.00 | 0.00 | 0.00 | 45 | 1015.6 |
| 20260830050704 | 78 | 9 | 5.0 | 10.0 | 0.00 | 0.00 | 0.00 | 44 | 1015.6 |
| 20260830050205 | 78 | 13 | 5.0 | 10.0 | 0.00 | 0.00 | 0.00 | 44 | 1015.7 |
| 20260830045204 | 78 | 26 | 4.0 | 8.0 | 0.00 | 0.00 | 0.00 | 44 | 1015.6 |
| 20260830044705 | 78 | 34 | 4.0 | 6.0 | 0.00 | 0.00 | 0.00 | 43 | 1015.6 |
| 20260830043704 | 79 | 44 | 4.0 | 8.0 | 0.00 | 0.00 | 0.00 | 42 | 1015.7 |
| 20260830043204 | 79 | 46 | 4.0 | 8.0 | 0.00 | 0.00 | 0.00 | 42 | 1015.5 |
| 20260830042704 | 79 | 67 | 4.0 | 8.0 | 0.00 | 0.00 | 0.00 | 42 | 1015.6 |
| 20260830042205 | 79 | 76 | 4.0 | 8.0 | 0.00 | 0.00 | 0.00 | 42 | 1015.6 |
| 20260830041704 | 79 | 88 | 3.0 | 7.0 | 0.00 | 0.00 | 0.00 | 41 | 1015.5 |
| 20260830041204 | 80 | 71 | 3.0 | 7.0 | 0.00 | 0.00 | 0.00 | 41 | 1015.5 |
| 20260830040704 | 80 | 83 | 2.0 | 7.0 | 0.00 | 0.00 | 0.00 | 40 | 1015.4 |
| 20260830040204 | 80 | 86 | 3.0 | 7.0 | 0.00 | 0.00 | 0.00 | 39 | 1015.5 |
| 20260830035204 | 80 | 80 | 4.0 | 10.0 | 0.00 | 0.00 | 0.00 | 38 | 1015.3 |
| 20260830034704 | 81 | 77 | 3.0 | 10.0 | 0.00 | 0.00 | 0.00 | 38 | 1015.2 |
| 20260830034204 | 81 | 74 | 4.0 | 12.0 | 0.00 | 0.00 | 0.00 | 37 | 1015.2 |
| 20260830033205 | 82 | 358 | 5.0 | 14.0 | 0.00 | 0.00 | 0.00 | 37 | 1014.9 |
| 20260830032704 | 82 | 358 | 6.0 | 16.0 | 0.00 | 0.00 | 0.00 | 36 | 1014.9 |
| 20260830032204 | 82 | 358 | 7.0 | 19.0 | 0.00 | 0.00 | 0.00 | 36 | 1014.7 |
| 20260830031704 | 83 | 358 | 10.0 | 19.0 | 0.00 | 0.00 | 0.00 | 35 | 1014.7 |
| 20260830031204 | 83 | 358 | 11.0 | 19.0 | 0.00 | 0.00 | 0.00 | 34 | 1014.7 |
| 20260830030705 | 84 | 358 | 9.0 | 14.0 | 0.00 | 0.00 | 0.00 | 33 | 1014.5 |
| 20260830030204 | 85 | 358 | 5.0 | 14.0 | 0.00 | 0.00 | 0.00 | 32 | 1014.5 |
| 20260830025204 | 85 | 15 | 3.0 | 9.0 | 0.00 | 0.00 | 0.00 | 31 | 1014.4 |
| 20260830024704 | 86 | 15 | 5.0 | 11.0 | 0.00 | 0.00 | 0.00 | 30 | 1014.4 |
| 20260830024204 | 86 | 14 | 6.0 | 12.0 | 0.00 | 0.00 | 0.00 | 30 | 1014.3 |
| 20260830023706 | 86 | 15 | 8.0 | 14.0 | 0.00 | 0.00 | 0.00 | 30 | 1014.2 |
| 20260830023204 | 86 | 353 | 8.0 | 16.0 | 0.00 | 0.00 | 0.00 | 30 | 1014.2 |
| 20260830022704 | 86 | 3 | 8.0 | 16.0 | 0.00 | 0.00 | 0.00 | 30 | 1014.1 |